Naples, FL

8:15 AM EDT on June 28, 2017 (GMT -0400)
Naples Municipal

Weather History for KAPF - April, 2012

Change the Weather History Date:

Sunday, April 1, 2012

  Actual Average Record
Temperature  
Mean Temperature 76 °F 71 °F  
Max Temperature 82 °F 81 °F 90 °F (1947)
Min Temperature 69 °F 62 °F 45 °F (1987)
Degree Days  
Heating Degree Days 0 0  
Month to date heating degree days 0 0  
Since 1 July heating degree days 121 256  
Cooling Degree Days 11 7  
Month to date cooling degree days 11 7  
Year to date cooling degree days 553 374  
Growing Degree Days 26 (Base 50)    
Moisture  
Dew Point 67 °F    
Average Humidity 76    
Maximum Humidity 97    
Minimum Humidity 55    
Precipitation  
Precipitation 0.00 in 0.08 in 2.95 in (2008)
Month to date precipitation 0.00 0.08  
Year to date precipitation 4.38 6.41  
Snow  
Snow 0.00 in - - ()
Month to date snowfall 0.0  
Since 1 July snowfall 0.0  
Snow Depth 0.00 in    
Sea Level Pressure  
Sea Level Pressure 29.93 in    
Wind  
Wind Speed 6 mph (WNW)    
Max Wind Speed 15 mph    
Max Gust Speed 17 mph    
Visibility 10 miles    
Events      
T = Trace of Precipitation, MM = Missing Value Source: NWS Daily Summary

Daily Weather History Graph

Daily Weather History Graph

Search for Another Location

Airport or City:

Trip Planner

Search our weather history database for the weather conditions in past years. The results will help you decide how hot, cold, wet, or windy it might be!

Date:

Astronomy

Apr. 01, 2012 Rise Set
Actual Time 7:17 AM EDT 7:44 PM EDT
Civil Twilight 6:54 AM EDT 8:07 PM EDT
Nautical Twilight 6:27 AM EDT 8:34 PM EDT
Astronomical Twilight 5:59 AM EDT 9:02 PM EDT
Moon 2:43 PM EDT (4/1) 3:21 AM EDT (4/1)
Length of Visible Light 13h 13m
Length of Day
12h 26m
Waxing Gibbous, 69% of the Moon is Illuminated
Apr 1
Waxing Gibbous
Apr 6
Full
Apr 13
Last Quarter
Apr 21
New
Apr 29
First Quarter

Hourly Weather History & Observations

Time (EDT) Temp. Heat Index Dew Point Humidity Pressure Visibility Wind Dir Wind Speed Gust Speed Precip Events Conditions
12:53 AM 75.0 °F - 72.0 °F 90% 29.93 in 7.0 mi West 5.8 mph - N/A   Mostly Cloudy
1:37 AM 75.2 °F - 71.6 °F 89% 29.93 in 7.0 mi West 5.8 mph - N/A   Mostly Cloudy
1:53 AM 75.0 °F - 72.0 °F 90% 29.92 in 8.0 mi West 4.6 mph - N/A   Overcast
2:53 AM 75.0 °F - 71.1 °F 87% 29.92 in 7.0 mi West 4.6 mph - N/A   Mostly Cloudy
3:21 AM 75.2 °F - 66.2 °F 73% 29.92 in 10.0 mi NW 4.6 mph - N/A   Scattered Clouds
3:53 AM 73.9 °F - 68.0 °F 82% 29.91 in 10.0 mi Calm Calm - N/A   Partly Cloudy
4:53 AM 72.0 °F - 68.0 °F 87% 29.91 in 10.0 mi Calm Calm - N/A   Clear
5:53 AM 70.0 °F - 68.0 °F 93% 29.92 in 10.0 mi Calm Calm - N/A   Clear
6:53 AM 70.0 °F - 66.9 °F 90% 29.93 in 9.0 mi Calm Calm - N/A   Clear
7:53 AM 70.0 °F - 66.9 °F 90% 29.94 in 8.0 mi Calm Calm - N/A   Clear
8:53 AM 75.0 °F - 68.0 °F 79% 29.95 in 10.0 mi Calm Calm - N/A   Clear
9:53 AM 78.1 °F - 64.9 °F 64% 29.95 in 10.0 mi WNW 5.8 mph - N/A   Clear
10:53 AM 80.1 °F 81.9 °F 64.9 °F 60% 29.96 in 10.0 mi WNW 10.4 mph - N/A   Partly Cloudy
11:53 AM 80.1 °F 81.7 °F 64.0 °F 58% 29.97 in 10.0 mi West 10.4 mph - N/A   Partly Cloudy
12:53 PM 81.0 °F 82.5 °F 64.0 °F 56% 29.97 in 10.0 mi WNW 8.1 mph - N/A   Scattered Clouds
1:53 PM 82.0 °F 83.4 °F 64.0 °F 54% 29.96 in 10.0 mi NW 10.4 mph - N/A   Scattered Clouds
2:53 PM 81.0 °F 83.0 °F 66.0 °F 60% 29.94 in 10.0 mi West 12.7 mph - N/A   Clear
3:53 PM 82.0 °F 84.1 °F 66.0 °F 58% 29.90 in 10.0 mi WNW 10.4 mph - N/A   Clear
4:53 PM 81.0 °F 83.0 °F 66.0 °F 60% 29.90 in 10.0 mi West 10.4 mph - N/A   Clear
5:53 PM 79.0 °F - 66.0 °F 64% 29.90 in 10.0 mi NW 10.4 mph - N/A   Clear
6:53 PM 77.0 °F - 66.0 °F 69% 29.90 in 10.0 mi NW 10.4 mph 17.3 mph N/A   Clear
7:53 PM 75.0 °F - 66.9 °F 76% 29.91 in 10.0 mi NW 5.8 mph - N/A   Clear
8:53 PM 73.9 °F - 68.0 °F 82% 29.92 in 10.0 mi WNW 10.4 mph - N/A   Clear
9:53 PM 73.9 °F - 66.9 °F 79% 29.92 in 10.0 mi NW 5.8 mph - N/A   Clear
10:53 PM 73.9 °F - 66.9 °F 79% 29.92 in 10.0 mi NNW 3.5 mph - N/A   Clear
11:53 PM 73.0 °F - 68.0 °F 84% 29.92 in 10.0 mi Calm Calm - N/A   Clear